Location: Newport
(44.6370°N, 124.0520°W)
Time: 23:13:35
(UTC-08:00)

Envisat - Pass Details

Date: 14 October 2017
Orbit: 764 x 766 km, 98.2° (Epoch: 12 December)

Event Time Altitude Azimuth Distance (km) Brightness Sun altitude
Exits shadow 20:40:30 59° 74° (ENE) 886 3.0 -23.4°
Maximum altitude 20:40:32 59° 72° (ENE) 885 3.0 -23.4°
Drops below altitude 10° 20:45:32 10° 354° (N) 2,315 5.7 -24.3°
Sets 20:47:53 0° 351° (N) 3,246 6.5 -24.7°
